[Date Prev][Date Next][Thread Prev][Thread Next] - [Date Index][Thread Index][Author Index]
2 Line ISS Keps 3-2
- Subject: [sarex] 2 Line ISS Keps 3-2
- From: "Dave Larsen PhD" <doc@xxxxxxxxxxx>
- Date: Wed, 1 Mar 2006 19:15:31 -0800
ISS
1 25544U 98067A 06061.02658756 .00014139 00000-0 10142-3 0 4479
2 25544 051.6438 018.7107 0008196 315.7753 133.5627 15.73948732416274
----
Via the sarex mailing list at AMSAT.ORG courtesy of AMSAT-NA.
To unsubscribe, send "unsubscribe sarex" to Majordomo@amsat.org
AMSAT Home